Regional Weather Roundup
Issued by NWS

Home | Current Version | Previous Version | Graphics & Text | Print | Product List | Glossary On
Versions: 1 2 3 4 5 6 7 8 9 10 11 12 13 14 15 16 17 18 19 20 21 22 23 24 25 26 27
000
ASUS45 KCYS 042110
RWRWY

WYOMING REGIONAL WEATHER ROUNDUP
NATIONAL WEATHER SERVICE CHEYENNE WY
300 PM MDT WED MAY 04 2016

NOTE:  "FAIR" INDICATES FEW OR NO CLOUDS BELOW 12,000 FEET
WITH NO SIGNIFICANT WEATHER AND/OR OBSTRUCTIONS TO VISIBILITY.

WYZ001-042200-
YELLOWSTONE NATIONAL PARK

CITY           SKY/WX    TMP DP  RH WIND       PRES   REMARKS
LK YELLOWSTONE   N/A     61  23  23 SE9       30.26F
W YELLOWSTONE  NOT AVBL

$$
WYZ002>013-054>058-071-098>099-042200-
NORTHERN WYOMING

CITY           SKY/WX    TMP DP  RH WIND       PRES   REMARKS
JACKSON        SUNNY     70  25  18 S14G23    30.17F
CODY           FAIR      75  28  17 SE9G16    30.04F
GREYBULL       FAIR      81  18   9 S6        30.00F
WORLAND        FAIR      79  30  16 S8        30.03F
SHERIDAN       FAIR      79  34  19 VRB5      30.01F
BUFFALO        FAIR      76  35  22 SE12G20   30.07F
GILLETTE       FAIR      76  36  23 W8        30.05F
HULETT         FAIR      75  36  23 S5        30.09F
NEWCASTLE      FAIR      73  32  21 SW5G20    30.11F

$$
WYZ014>020-022>026-101>103-042200-
CENTRAL WYOMING

CITY           SKY/WX    TMP DP  RH WIND       PRES   REMARKS
BIG PINEY      FAIR      71  23  16 S13G23    30.20F
PINEDALE       FAIR      68  19  15 S6G16     30.21F
DUBOIS         FAIR      66  18  15 N7G16     30.18F
LANDER         FAIR      74  33  22 VRB3      30.09F
RIVERTON       FAIR      74  31  20 VRB7      30.12F
CASPER         FAIR      74  29  19 W9G18     30.12F
DOUGLAS        FAIR      74  37  26 VRB3      30.13F

$$
WYZ021-027>030-104>119-042200-
SOUTHERN WYOMING

CITY           SKY/WX    TMP DP  RH WIND       PRES   REMARKS
EVANSTON       FAIR      70  25  18 SW17G24   30.19F
KEMMERER         N/A     68  19  15 CALM      30.21F
FORT BRIDGER   FAIR      71  21  15 SE3       30.23F
ROCK SPRINGS   FAIR      69  20  15 VRB6      30.19F
DIXON          FAIR      71  24  16 W14       30.25S
RAWLINS        FAIR      70  19  14 S12       30.21F
SARATOGA       FAIR      70  19  14 W13G22    30.23F
LARAMIE        FAIR      64  25  22 VRB5      30.24F
CHEYENNE       FAIR      71  27  19 N8        30.20F
TORRINGTON     FAIR      74  35  24 VRB3      30.12F
PINE BLUFFS    FAIR      70  32  24 W3        30.18F

$$




USA.gov is the U.S. government's official web portal to all federal, state and local government web resources and services.